Regional Weather Roundup
Issued by NWS Cleveland, OH

Home | Current Version | Previous Version | Text Only | Print | Product List | Glossary On
Versions: 1 2 3 4 5 6 7 8 9 10 11 12 13 14 15 16 17 18 19 20 21 22 23 24 25 26 27 28 29 30 31 32 33 34 35 36 37 38 39 40 41 42 43 44 45 46 47 48 49 50
000
ASUS41 KCLE 282012
RWRCLE
OHIO REGIONAL WEATHER ROUNDUP
NATIONAL WEATHER SERVICE WILMINGTON, OH
400 PM EDT TUE MAR 28 2017

NOTE: "FAIR" INDICATES FEW OR NO CLOUDS BELOW 12,000 FEET WITH NO
SIGNIFICANT WEATHER AND/OR OBSTRUCTIONS TO VISIBILITY.

OHZ001>008-015>018-024>027-034-035-043-044-282100-
   NORTHWEST OHIO

CITY           SKY/WX    TMP DP  RH WIND       PRES   REMARKS
DEFIANCE       CLOUDY    49  42  77 N8        30.07S
FINDLAY        CLOUDY    50  40  68 NE8       30.05S
TOLEDO EXPRESS CLOUDY    48  40  73 N9        30.07R
TOLEDO EXEC    CLOUDY    48  41  76 NE6       30.08R
LIMA           CLOUDY    49  45  86 N10       30.05S
$$

OHZ009>014-019>023-028>033-038-089-282100-
   NORTHEAST OHIO

CITY           SKY/WX    TMP DP  RH WIND       PRES   REMARKS
CLE-HOPKINS    CLOUDY    46  38  73 N10       30.07R
CLE-LAKEFRONT  CLOUDY    41  37  86 W7        30.04S
CUY CO. ARPT   CLOUDY    45  41  87 N9        30.04S
LORAIN-ELYRIA  CLOUDY    44  38  79 N13       30.05S
ASHTABULA      CLOUDY    42  42 100 NW6       30.02R FOG
AKRON-CANTON   CLOUDY    48  42  80 N10       30.00R
WOOSTER        CLOUDY    44  41  89 N15       30.02F
MANSFIELD      CLOUDY    44  41  89 N10       30.03S
YOUNGSTOWN     CLOUDY    47  43  86 NW14      29.99R
$$

OHZ042-051>053-060>062-070>072-077>081-282100-
  SOUTHWEST OHIO

CITY           SKY/WX    TMP DP  RH WIND       PRES   REMARKS
CINC-COVINGTON CLOUDY    58  51  78 NW12      30.02R
CINC-LUNKEN    CLOUDY    60  53  77 NW10      30.02R
HAMILTON       CLOUDY    57  52  83 NW9       30.04R
DAYTON         CLOUDY    53  47  79 N12       30.04S
WRIGHT-PAT AFB CLOUDY    55  51  87 NE8       30.03R
DAYTON GENERAL CLOUDY    57  49  74 N10       30.01S
WILMINGTON     CLOUDY    57  51  80 N10       30.00S
$$

OHZ036-037-039>041-045>050-054>059-063>069-073>076-082>088-282100-
  CENTRAL AND SOUTHEAST OHIO

CITY           SKY/WX    TMP DP  RH WIND       PRES   REMARKS
COLUMBUS       FAIR      60  50  69 NW8       29.99S
OSU AIRPORT    CLOUDY    55  48  77 N10       30.01R
BOLTON FIELD   MOSUNNY   57  48  72 N10       30.01S
RICKENBACK AFB FAIR      59  50  73 N8        29.99S
NEWARK         FAIR      60  49  66 N13       29.98S
MARION         CLOUDY    48  43  82 N12       30.05R
LANCASTER      CLOUDY    62  51  67 NW9       29.99S
ZANESVILLE     CLOUDY    58  49  72 NW12      29.98R
NEW PHILLY     CLOUDY    55  48  77 N9        29.98R
$$




USA.gov is the U.S. government's official web portal to all federal, state and local government web resources and services.